When you browse on this site, cookies collect data to enhance your experience and personalize the content and advertising you see.
Visit our Privacy Policy to learn more. By continuing to use the site, you agree to this use of cookies and data.
  • In United Kingdom
  • List of Countries
  • For 7 days
  • Water Temperature
  • Satellite Maps
  • Weather Map
  • Weather Widgets
  • user-avatar
    Login

    Hourly Weather Libourne

    Today, 19 April, Friday

    Time Temperature Precipitation Wind Pressure Humidity
    00:00 +14°C° 0 mm 3 mps 759 mmHg 58%
    01:00 +13°C° 0 mm 3 mps 759 mmHg 57%
    02:00 +13°C° 0 mm 3 mps 759 mmHg 57%
    03:00 +12°C° 0 mm 3 mps 759 mmHg 56%
    04:00 +12°C° 0 mm 3 mps 760 mmHg 57%
    05:00 +12°C° 0 mm 3 mps 760 mmHg 58%
    06:00 +12°C° 0 mm 3 mps 760 mmHg 59%
    07:00 +14°C° 0 mm 4 mps 761 mmHg 57%
    08:00 +16°C° 0 mm 5 mps 761 mmHg 54%
    09:00 +19°C° 0 mm 6 mps 761 mmHg 52%
    10:00 +21°C° 0 mm 6 mps 762 mmHg 49%
    11:00 +22°C° 0 mm 6 mps 762 mmHg 47%
    12:00 +23°C° 0 mm 6 mps 762 mmHg 45%
    13:00 +23°C° 0 mm 6 mps 762 mmHg 45%
    14:00 +25°C° 0 mm 5 mps 762 mmHg 45%
    15:00 +25°C° 0 mm 5 mps 762 mmHg 46%
    16:00 +23°C° 0 mm 4 mps 762 mmHg 52%
    17:00 +22°C° 0 mm 3 mps 762 mmHg 57%
    18:00 +20°C° 0 mm 2 mps 763 mmHg 63%
    19:00 +19°C° 0 mm 2 mps 763 mmHg 66%
    20:00 +17°C° 0 mm 2 mps 764 mmHg 70%
    21:00 +15°C° 0 mm 2 mps 764 mmHg 73%
    22:00 +14°C° 0 mm 2 mps 764 mmHg 72%
    23:00 +14°C° 0 mm 2 mps 764 mmHg 72%

    Tomorrow, 20 April, Saturday

    Time Temperature Precipitation Wind Pressure Humidity
    00:00 +13°C° 0 mm 2 mps 764 mmHg 72%
    01:00 +12°C° 0 mm 2 mps 764 mmHg 69%
    02:00 +12°C° 0 mm 2 mps 764 mmHg 67%
    03:00 +10°C° 0 mm 2 mps 764 mmHg 64%
    04:00 +10°C° 0 mm 2 mps 764 mmHg 65%
    05:00 +10°C° 0 mm 2 mps 764 mmHg 66%
    06:00 +10°C° 0 mm 2 mps 764 mmHg 67%
    07:00 +13°C° 0 mm 2 mps 764 mmHg 62%
    08:00 +16°C° 0 mm 3 mps 763 mmHg 57%
    09:00 +19°C° 0 mm 3 mps 763 mmHg 52%
    10:00 +20°C° 0 mm 3 mps 763 mmHg 49%
    11:00 +21°C° 0 mm 3 mps 763 mmHg 46%
    12:00 +24°C° 0 mm 3 mps 762 mmHg 43%
    13:00 +24°C° 0 mm 3 mps 762 mmHg 43%
    14:00 +25°C° 0 mm 3 mps 762 mmHg 43%
    15:00 +25°C° 0 mm 3 mps 761 mmHg 42%
    16:00 +24°C° 0 mm 3 mps 761 mmHg 49%
    17:00 +21°C° 0 mm 2 mps 761 mmHg 55%
    18:00 +20°C° 0 mm 2 mps 761 mmHg 62%
    19:00 +18°C° 0.2 mm 2 mps 761 mmHg 67%
    20:00 +17°C° 0.2 mm 2 mps 761 mmHg 71%
    21:00 +15°C° 0.2 mm 2 mps 761 mmHg 76%
    22:00 +14°C° 0.1 mm 2 mps 761 mmHg 76%
    23:00 +13°C° 0.1 mm 2 mps 761 mmHg 75%

    Day after tomorrow, 21 April, Sunday

    Time Temperature Precipitation Wind Pressure Humidity
    00:00 +12°C° 0.1 mm 2 mps 761 mmHg 75%
    01:00 +12°C° 0 mm 2 mps 761 mmHg 75%
    02:00 +10°C° 0 mm 2 mps 761 mmHg 75%
    03:00 +10°C° 0 mm 2 mps 760 mmHg 75%
    04:00 +10°C° 0 mm 2 mps 760 mmHg 75%
    05:00 +12°C° 0 mm 2 mps 760 mmHg 76%
    06:00 +12°C° 0 mm 2 mps 760 mmHg 76%
    07:00 +14°C° 0 mm 2 mps 760 mmHg 72%
    08:00 +14°C° 0 mm 3 mps 760 mmHg 68%
    09:00 +17°C° 0 mm 3 mps 760 mmHg 63%
    10:00 +18°C° 0 mm 4 mps 760 mmHg 58%
    11:00 +19°C° 0 mm 4 mps 759 mmHg 53%
    12:00 +20°C° 0 mm 5 mps 759 mmHg 48%
    13:00 +21°C° 0 mm 5 mps 758 mmHg 47%
    14:00 +21°C° 0 mm 4 mps 758 mmHg 46%
    15:00 +21°C° 0 mm 4 mps 757 mmHg 46%
    16:00 +20°C° 0 mm 3 mps 757 mmHg 52%
    17:00 +19°C° 0 mm 3 mps 756 mmHg 59%
    18:00 +18°C° 0 mm 2 mps 756 mmHg 65%
    19:00 +17°C° 0.3 mm 2 mps 756 mmHg 70%
    20:00 +16°C° 0.3 mm 2 mps 756 mmHg 75%
    21:00 +15°C° 0.3 mm 2 mps 756 mmHg 80%
    22:00 +15°C° 0.1 mm 2 mps 755 mmHg 82%
    23:00 +14°C° 0.1 mm 2 mps 755 mmHg 83%

    22 April, Monday

    Time Temperature Precipitation Wind Pressure Humidity
    00:00 +14°C° 0.1 mm 2 mps 754 mmHg 85%
    01:00 +13°C° 0 mm 2 mps 754 mmHg 87%
    02:00 +13°C° 0 mm 2 mps 753 mmHg 89%
    03:00 +12°C° 0 mm 2 mps 752 mmHg 91%
    04:00 +12°C° 0 mm 2 mps 752 mmHg 90%
    05:00 +12°C° 0 mm 2 mps 751 mmHg 88%
    06:00 +12°C° 0 mm 2 mps 751 mmHg 87%
    07:00 +14°C° 0 mm 2 mps 750 mmHg 78%
    08:00 +16°C° 0 mm 2 mps 750 mmHg 70%
    09:00 +18°C° 0 mm 3 mps 749 mmHg 62%
    10:00 +19°C° 0 mm 3 mps 749 mmHg 56%
    11:00 +20°C° 0 mm 4 mps 748 mmHg 49%
    12:00 +22°C° 0 mm 4 mps 747 mmHg 42%
    13:00 +22°C° 0 mm 5 mps 746 mmHg 43%
    14:00 +22°C° 0 mm 5 mps 746 mmHg 43%
    15:00 +22°C° 0 mm 5 mps 745 mmHg 43%
    16:00 +21°C° 0 mm 5 mps 745 mmHg 48%
    17:00 +19°C° 0 mm 4 mps 745 mmHg 53%
    18:00 +18°C° 0 mm 3 mps 744 mmHg 59%
    19:00 +17°C° 0 mm 3 mps 744 mmHg 58%
    20:00 +17°C° 0 mm 3 mps 744 mmHg 57%
    21:00 +16°C° 0 mm 3 mps 744 mmHg 56%
    22:00 +14°C° 0 mm 3 mps 744 mmHg 60%
    23:00 +13°C° 0 mm 3 mps 744 mmHg 63%

    23 April, Tuesday

    Time Temperature Precipitation Wind Pressure Humidity
    00:00 +13°C° 0 mm 3 mps 743 mmHg 66%
    01:00 +12°C° 0 mm 3 mps 743 mmHg 70%
    02:00 +12°C° 0 mm 3 mps 743 mmHg 74%
    03:00 +11°C° 0 mm 3 mps 742 mmHg 78%
    04:00 +11°C° 0 mm 3 mps 742 mmHg 80%
    05:00 +11°C° 0 mm 3 mps 742 mmHg 81%
    06:00 +12°C° 0 mm 3 mps 742 mmHg 82%
    07:00 +14°C° 0 mm 3 mps 742 mmHg 76%
    08:00 +17°C° 0 mm 3 mps 743 mmHg 70%
    09:00 +19°C° 0 mm 3 mps 743 mmHg 64%
    10:00 +20°C° 0.7 mm 3 mps 743 mmHg 63%
    11:00 +20°C° 0.7 mm 2 mps 743 mmHg 62%
    12:00 +21°C° 0.7 mm 2 mps 743 mmHg 61%
    13:00 +21°C° 0.7 mm 2 mps 743 mmHg 63%
    14:00 +21°C° 0.7 mm 2 mps 743 mmHg 65%
    15:00 +20°C° 0.7 mm 2 mps 743 mmHg 67%
    16:00 +19°C° 1 mm 3 mps 743 mmHg 72%
    17:00 +18°C° 1 mm 3 mps 743 mmHg 77%
    18:00 +17°C° 1 mm 3 mps 744 mmHg 82%
    19:00 +16°C° 0.4 mm 3 mps 745 mmHg 85%
    20:00 +14°C° 0.4 mm 3 mps 746 mmHg 87%
    21:00 +13°C° 0.4 mm 3 mps 747 mmHg 90%
    22:00 +14°C° 0.2 mm 2 mps 747 mmHg 89%
    23:00 +13°C° 0.2 mm 1 mps 747 mmHg 89%

    24 April, Wednesday

    Time Temperature Precipitation Wind Pressure Humidity
    00:00 +13°C° 0.2 mm 1 mps 748 mmHg 88%
    01:00 +12°C° 0 mm 1 mps 748 mmHg 88%
    02:00 +12°C° 0 mm 2 mps 748 mmHg 88%
    03:00 +12°C° 0 mm 2 mps 748 mmHg 88%
    04:00 +12°C° 0.3 mm 2 mps 748 mmHg 89%
    05:00 +12°C° 0.3 mm 2 mps 749 mmHg 89%
    06:00 +10°C° 0.3 mm 2 mps 749 mmHg 90%
    07:00 +11°C° 0.1 mm 3 mps 749 mmHg 87%
    08:00 +12°C° 0.1 mm 3 mps 750 mmHg 84%
    09:00 +12°C° 0.1 mm 3 mps 750 mmHg 81%
    10:00 +12°C° 0.4 mm 3 mps 750 mmHg 82%
    11:00 +12°C° 0.4 mm 3 mps 750 mmHg 84%
    12:00 +12°C° 0.4 mm 4 mps 750 mmHg 85%
    13:00 +11°C° 0.6 mm 3 mps 750 mmHg 86%
    14:00 +11°C° 0.6 mm 3 mps 750 mmHg 87%
    15:00 +11°C° 0.6 mm 3 mps 750 mmHg 88%
    16:00 +10°C° 0.2 mm 3 mps 750 mmHg 88%
    17:00 +10°C° 0.2 mm 3 mps 750 mmHg 89%
    18:00 +10°C° 0.2 mm 3 mps 750 mmHg 90%
    19:00 +9°C° 0.1 mm 3 mps 751 mmHg 91%
    20:00 +9°C° 0.1 mm 3 mps 751 mmHg 91%
    21:00 +9°C° 0.1 mm 3 mps 751 mmHg 92%
    22:00 +9°C° 0 mm 3 mps 751 mmHg 92%
    23:00 +9°C° 0 mm 3 mps 751 mmHg 93%
    Show more